Location: Tel Aviv
(32.0670°N, 34.7670°E)
Time: 06:44:03
(UTC+02:00)

Vanguard 1 Rocket - Pass Details

Date: 12 December 2023
Orbit: 654 x 4218 km, 34.3° (Epoch: 24 February)

Event Time Altitude Azimuth Distance (km) Brightness Sun altitude
Exits shadow 05:44:43 - 273° (W) 7,475 11.4 -9.9°
Reaches altitude 10° 05:46:27 10° 274° (W) 7,115 11.3 -9.6°
Maximum altitude 06:08:54 83° 4° (N) 2,642 9.7 -5.2°
Drops below altitude 10° 06:20:17 10° 93° (E) 3,955 12.0 -3.0°
Sets 06:22:42 0° 94° (E) 4,623 12.6 -2.6°
